Retour au catalogue

DELTA 2 R/B(2)

ActifGTO
NORAD 23879·ROCKET BODY·🇺🇸 United States

Lancé May 24, 1996 depuis Cape Canaveral Space Force Station

Loading…

TLE

PériméSource: Space-Track

Époque: Sep 13, 2026, 16:45 UTC

1 23879U 96033C   26256.69844668  .00000040  00000-0  00000-0 0  9996
2 23879  22.4342 247.7358 6794130  58.8354 350.5115  2.11147673 98792

Suivez DELTA 2 R/B(2) en temps réel avec AllMySat

Download on the App Store